Home   Weather   Sanandaj   Past weeks

Flag for Iran Past Weather in Sanandaj, Iran — Yesterday and Last 2 Weeks

Now
54 °F

Clear.


Feels Like: 54 °F
Forecast: 42 / 77 °F
Wind: No wind

Location: Sanandaj Airport

Current Time: Sep 28, 2016 at 3:38:07 AM

Latest Report: Sep 28, 2016 at 2:30 AM


Visibility: 10 mi

Pressure: 30.12 "Hg (25.16 "Hg at 1502m altitude)

Humidity: 44%

Dew Point: 32 °F

Location of SanandajLocation

Past Weather in Sanandaj — Graph

°F

Sanandaj Temperature Yesterday

Maximum temperature yesterday: 86 °F (at 3:30 PM)
Minimum temperature yesterday: 46 °F (at 5:24 AM)
Average temperature yesterday: 65 °F

High & Low Weather Summary for the Past Weeks

 TemperatureHumidityPressure
High91 °F (Sep 13, 3:30 PM)76% (Sep 25, 6:30 AM)30.18 "Hg (Sep 25, 6:30 AM)
Low39 °F (Sep 26, 6:30 AM)7% (Sep 13, 5:30 PM)29.80 "Hg (Sep 24, 4:23 AM)
Average69 °F29%30.02 "Hg
* Reported Sep 13 3:30 AM — Sep 28 2:30 AM, Sanandaj, Weather by CustomWeather, © 2016

Note: Actual official high and low records may vary slightly from our data, if they occured in-between our weather recording intervals... More about our weather records

Advertising

Sanandaj Weather History for the Previous 24 Hours

Scroll right to see more
 ConditionsComfort  
Time TempWeatherWind HumidityBarometerVisibility
2:30 AM
Wed, Sep 28
54 °FClear.No wind44%30.12 "Hg10 mi
1:30 AM54 °FClear.No wind44%30.12 "Hg10 mi
12:30 AM55 °FClear.No wind41%30.12 "Hg10 mi
11:24 PM
Tue, Sep 27
55 °FClear.No wind41%30.12 "Hg10 mi
10:24 PM61 °FClear.No wind36%30.12 "Hg10 mi
9:30 PM64 °FClear.5 mph32%30.12 "Hg10 mi
8:22 PM72 °FClear.2 mph19%30.12 "Hg10 mi
7:23 PM73 °FClear.9 mph19%30.09 "Hg10 mi
6:25 PM77 °FSunny.9 mph15%30.07 "Hg10 mi
5:30 PM82 °FSunny.9 mph12%30.04 "Hg10 mi
4:30 PM86 °FSunny.14 mph11%30.04 "Hg10 mi
3:30 PM86 °FSunny.12 mph12%30.04 "Hg10 mi
2:30 PM84 °FSunny.9 mph13%30.04 "Hg10 mi
1:30 PM84 °FSunny.9 mph14%30.07 "Hg10 mi
12:25 PM81 °FSunny.7 mph16%30.09 "Hg10 mi
11:30 AM77 °FSunny.2 mph19%30.15 "Hg10 mi
10:30 AM72 °FSunny.2 mph22%30.18 "Hg10 mi
9:30 AM66 °FSunny.2 mph24%30.18 "Hg10 mi
9:00 AM64 °FSunny.No wind28%30.18 "Hg10 mi
8:30 AM59 °FSunny.2 mph36%30.18 "Hg10 mi
7:30 AM50 °FSunny.No wind50%30.15 "Hg10 mi
7:00 AM46 °FSunny.No wind57%30.15 "Hg10 mi
6:24 AM46 °FClear.No wind53%30.15 "Hg10 mi
5:24 AM46 °FClear.2 mph57%30.12 "Hg10 mi
4:22 AM48 °FClear.No wind50%30.09 "Hg10 mi
3:25 AM50 °FClear.No wind54%30.12 "Hg10 mi
Weather by CustomWeather, © 2016

See weather overviewHow to use our weather pages